STARLINK-35460, 66328

Orbit data source: Space-Track

STARLINK-35460, 66328 is a payload satellite owned by SpaceX/Seattle (US) in LEO that was launched on Thu, 06 Nov 2025 UTC via an FALCON 9 launch vehicle from the Air Force Eastern Test Range (AFETR). Payload-class satellites include a variety of spacecraft equipped with specific instruments for various scientific and technological missions. These include communications satellites like Starlink; space stations such as the ISS; scientific satellites like the Hubble; Earth observation satellites from companies like Planet Labs, Umbra, and HawkEye 360; GPS; miniature CubeSats for education and research; and military/defense satellites.

Loading next visibility...
Identifier
66328, 2025-253K
Orbit
LEO
Country
Flag of USUS
Related business
Manufacturer
SpaceX/Seattle
Mission
Operational Commercial Communications
Bus & Motor
STARLINK V2MO, Unknown motor
Mass
575 kg wet, ~530 kg dry
Launch date (UTC)
2025-11-06 (7 months ago)
Launch vehicle
FALCON 9
Launch site
Air Force Eastern Test Range (AFETR)
Object type
Payload
Rocket body
Debris
Shape & HBR
Box + 2 Pan, 17.7 m
Radar Cross Section
36.964 m², Large (>1 m²)

Expand to show TLE details & history
Last TLE update: 15 hours ago

TLE from 15 hours ago
0 STARLINK-35460
1 66328U 25253K   26170.57701793  .00020340  00000-0  74665-3 0  9997
2 66328  43.0023 357.3780 0001445 269.0887  90.9799 15.27578590 35826
Epoch: 2026-06-19T13:50Z
TLE epoch observation values (Epoch: 2026-06-19T13:50:54.349Z)
Latitude
-0.00001°
Longitude
-118.15247°
Altitude
482.846 km
Speed
7.626 km/s
True Right ascension
23h 49m 30s
True Declination
0° 00' 00"
Sunlit
Object was in daylight at epoch
Visualization orbit readout
Latitude
Unknown
Longitude
Unknown
Altitude
Unknown
Speed
Unknown
Apparent Right ascension
Unknown
Apparent Declination
Unknown
Sunlit
N/A
Visualization observer readout
Local Sidereal Time
16:06:29
Azimuth
Unknown
Elevation
Unknown
Doppler factor
Unknown
Orbital elements
Apogee altitude
485.99 km
Perigee altitude
484.006 km
Semi-major axis
6,863.135 km
Eccentricity
0.00014
Inclination
43.0023°
RAAN
357.378°
Arg. of periapsis
269.0887°
True anomaly
90.99646°
Mean anomaly
90.9799°
Eccentric anomaly
90.98818°
Mean motion
3.81733 °/min
Orbital period
94.31 mins
BSTAR
0.00074665
Loading maneuver chart data...
Computing Atmospheric mass density...
Loading historical data...
Loading historical data...
Loading historical data...
Loading historical data...
Loading historical data...
Loading historical data...
Loading historical data...

Documentation

Showing up to 5 results
|